Regional Weather Roundup
Issued by NWS

Home | Current Version | Previous Version | Graphics & Text | Print | Product List | Glossary On
Versions: 1 2 3 4 5 6 7 8 9 10 11 12 13 14 15 16 17 18 19 20 21 22 23 24 25 26 27 28 29 30 31 32 33 34 35 36 37 38 39 40 41 42 43 44 45 46 47 48 49 50
000
ASUS45 KSLC 060210
RWRUT

UTAH REGIONAL WEATHER ROUNDUP
NATIONAL WEATHER SERVICE SALT LAKE CITY UT
800 PM MDT TUE MAY 05 2015

UTZ001>011-023>025-060300-

NORTHERN UTAH

CITY           SKY/WX    TMP DP  RH WIND       PRES   REMARKS
HILL AFB       MOCLDY    62  45  52 W7        29.80R
LOGAN          PTCLDY    59  48  67 S8        29.78S
OGDEN          CLOUDY    64  45  49 W7        29.78R
PROVO AIRPORT  NOT AVBL
SALT LAKE CITY MOCLDY    66  43  43 W10       29.77R
VERNAL         LGT RAIN  52  47  83 CALM      29.80F
WENDOVER       CLOUDY    63  43  48 E10       29.79S
HEBER CITY     RAIN      50  45  81 NE13G23   29.82R
WEST JORDAN    PTCLDY    63  48  59 NW8       29.79R

$$

UTZ012>022-026-027-060300-

SOUTHERN/CENTRAL UTAH

CITY           SKY/WX    TMP DP  RH WIND       PRES   REMARKS
BLANDING       MOCLDY    54  45  72 W6        29.92S
BRYCE CANYON   CLOUDY    44  38  79 NW15      29.96R
CEDAR CITY     LGT RAIN  44  43  96 SE13      29.94R
DELTA          CLOUDY    55  46  71 S10       29.81S
HANKSVILLE     MOCLDY    63  50  63 CALM      29.79S
MILFORD        CLOUDY    55  48  77 W9        29.87R
MOAB/CYNLANDS  LGT RAIN  54  51  90 CALM      29.78S
PRICE          CLOUDY    51  47  86 W3        29.83S
ST GEORGE      CLOUDY    73  39  29 N29G39    29.79R
KANAB          CLOUDY    64  41  42 SW13      29.87R

$$

REGIONAL REPORTS     COLORADO/ARIZONA

CITY           SKY/WX    TMP DP  RH WIND       PRES   REMARKS
CRAIG, CO      CLOUDY    53  45  74 W8        29.79R
GRAND JUNCTION CLOUDY    54  50  86 S3        29.79R
RIFLE          RAIN      53  48  83 S7        29.80R
MONTROSE       CLOUDY    55  46  71 S6        29.84R
CORTEZ         CLOUDY    52  47  83 VRB5      29.87R
PAGE, AZ       CLOUDY    67  43  41 E5        29.80R
GRAND CANYON   PTCLDY    56  41  57 SW14G21   29.95R
KINGMAN        CLEAR     70  39  32 SW20G29   29.84R
FLAGSTAFF      MOCLDY    48  45  89 SW15      30.00R

$$

REGIONAL REPORTS    NEVADA/IDAHO/WYOMING

CITY           SKY/WX    TMP DP  RH WIND       PRES   REMARKS
LAS VEGAS, NV  PTCLDY    84  33  16 SW21G28   29.64S
ELY            CLOUDY    55  36  48 N7        29.89S
ELKO           PTCLDY    64  35  34 E9        29.78F
POCATELLO, ID  CLEAR     60  43  53 NE14      29.78R
BURLEY         CLOUDY    64  29  26 W10       29.75S
EVANSTON, WY   CLOUDY    47  43  86 CALM      29.88S
ROCK SPRINGS   CLOUDY    50  41  71 NW16      29.83S
KEMMERER       CLOUDY    46  45  93 W7        29.87S

$$



USA.gov is the U.S. government's official web portal to all federal, state and local government web resources and services.